Location: ??????
(41.3747°N, 22.5491°E)
Time: 13:43:35
(UTC+00:00)

Lacrosse 5 rocket - Pass Details

Date: 01 December 2020
Orbit: 461 x 634 km, 57.0° (Epoch: 20 January)

Event Time Altitude Azimuth Distance (km) Brightness Sun altitude
Rises 16:45:07 0° 282° (WNW) 2,515 5.9 -19.0°
Reaches altitude 10° 16:48:32 10° 316° (NW) 1,620 4.1 -19.6°
Maximum altitude 16:49:54 12° 338° (NNW) 1,512 3.7 -19.9°
Enters shadow 16:50:54 11° 355° (N) 1,566 3.6 -20.1°
